sat.trackr.live / text

‹ back to catalog

STARLINK-35804

NORAD 66371 · 2025-254Z

PAYLOAD ACTIVE UNKNOWN

§ Identity

Operator
Country
US
Launch date
2025-11-06
Launch site
AFWTR
Launch vehicle
Mass (kg)
RCS (m²)

Purposes: comms

External: N2YO · Heavens-Above · Gunter

§ Orbital elements

Epoch: 2026-05-25T05:03:17.155008Z

Period
94.10 min
Inclination
53.1576°
Eccentricity
0.0001022
Mean motion
15.30209982 rev/d
Perigee alt
474.5 km
Apogee alt
475.9 km
Semi-major
6,853.3 km
B*
5.0533e-4
RAAN
234.6860°
Arg perigee
96.9514°
Mean anomaly
263.1603°
Rev number
3,072

§ Raw data

STARLINK-358041 66371U 25254Z   26145.21061522  .00014641  00000+0  50533-3 0  99922 66371  53.1576 234.6860 0001022  96.9514 263.1603 15.30209982 30722

JSON: /api/v1/satellites/66371 · /tle

For live sub-satellite position, see the globe view (requires WebGL).

§ Visibility from observer

Set your observer location to see the next 7 days of passes ≥ 10°. The values pass through the URL so the page stays shareable.

No JS? Fill the form by hand. The geolocation button needs JavaScript.